Florence, SC

10:07 PM EST on December 10, 2016 (GMT -0500)
Florence Regional

Weather History for KFLO - May, 2014

Change the Weather History Date:

Sunday, May 11, 2014

  Actual Average Record
Temperature  
Mean Temperature 77 °F 70 °F  
Max Temperature 87 °F 82 °F 96 °F (1963)
Min Temperature 66 °F 58 °F 38 °F (1966)
Degree Days  
Heating Degree Days 0 1  
Month to date heating degree days 2 15  
Since 1 July heating degree days 2662 2515  
Cooling Degree Days 12 6  
Month to date cooling degree days 98 52  
Year to date cooling degree days 197 148  
Growing Degree Days 26 (Base 50)    
Moisture  
Dew Point 66 °F    
Average Humidity 68    
Maximum Humidity 90    
Minimum Humidity 46    
Precipitation  
Precipitation T in 0.09 in 1.76 in (2008)
Month to date precipitation 0.02 0.98  
Year to date precipitation 14.76 13.08  
Sea Level Pressure  
Sea Level Pressure 30.10 in    
Wind  
Wind Speed 6 mph (SW)    
Max Wind Speed 14 mph    
Max Gust Speed 20 mph    
Visibility 10 miles    
Events      
T = Trace of Precipitation, MM = Missing Value Source: NWS Daily Summary

Daily Weather History Graph

Daily Weather History Graph

Search for Another Location

Airport or City:

Trip Planner

Search our weather history database for the weather conditions in past years. The results will help you decide how hot, cold, wet, or windy it might be!

Date:

Astronomy

May. 11, 2014 Rise Set
Actual Time 6:20 AM EDT 8:10 PM EDT
Civil Twilight 5:52 AM EDT 8:38 PM EDT
Nautical Twilight 5:19 AM EDT 9:11 PM EDT
Astronomical Twilight 4:44 AM EDT 9:46 PM EDT
Moon 5:13 PM EDT 4:14 AM EDT
Length of Visible Light 14h 45m
Length of Day
13h 50m
Waxing Gibbous, 89% of the Moon is Illuminated
May 11
Waxing Gibbous
May 14
Full
May 21
Last Quarter
May 28
New
Jun 5
First Quarter

Hourly Weather History & Observations

Time (EDT) Temp. Heat Index Dew Point Humidity Pressure Visibility Wind Dir Wind Speed Gust Speed Precip Events Conditions
12:53 AM 73.0 °F - 64.9 °F 76% 30.09 in 10.0 mi SSW 6.9 mph - N/A   Scattered Clouds
1:53 AM 73.9 °F - 66.0 °F 76% 30.08 in 10.0 mi SSW 8.1 mph - N/A   Overcast
2:53 AM 73.9 °F - 63.0 °F 68% 30.07 in 10.0 mi SW 10.4 mph - N/A   Overcast
3:53 AM 71.1 °F - 63.0 °F 75% 30.07 in 10.0 mi WSW 8.1 mph - 0.00 in   Partly Cloudy
4:53 AM 69.1 °F - 63.0 °F 81% 30.07 in 10.0 mi West 4.6 mph - N/A   Clear
5:53 AM 66.0 °F - 63.0 °F 90% 30.07 in 10.0 mi SSW 4.6 mph - N/A   Clear
6:53 AM 68.0 °F - 64.0 °F 87% 30.10 in 10.0 mi SW 4.6 mph - N/A   Mostly Cloudy
7:53 AM 71.1 °F - 64.9 °F 81% 30.12 in 10.0 mi SW 8.1 mph - N/A   Partly Cloudy
8:53 AM 75.9 °F - 64.9 °F 69% 30.14 in 10.0 mi West 8.1 mph - N/A   Clear
9:53 AM 79.0 °F - 66.0 °F 64% 30.14 in 10.0 mi West 5.8 mph - N/A   Partly Cloudy
10:53 AM 79.0 °F - 64.9 °F 62% 30.15 in 10.0 mi West 9.2 mph - N/A   Overcast
11:53 AM 82.0 °F 84.1 °F 66.0 °F 58% 30.15 in 10.0 mi Calm Calm - N/A   Mostly Cloudy
12:53 PM 82.9 °F 85.0 °F 66.0 °F 56% 30.13 in 10.0 mi SW 8.1 mph - N/A   Mostly Cloudy
2:53 PM 87.1 °F 88.9 °F 64.9 °F 48% 30.10 in 10.0 mi Variable 5.8 mph - N/A   Partly Cloudy
3:53 PM 84.9 °F 88.2 °F 68.0 °F 57% 30.08 in 10.0 mi South 8.1 mph - N/A   Scattered Clouds
4:53 PM 84.9 °F 87.6 °F 66.9 °F 55% 30.08 in 10.0 mi Variable 6.9 mph - N/A   Partly Cloudy
5:53 PM 84.0 °F 86.5 °F 66.9 °F 56% 30.08 in 10.0 mi South 9.2 mph - N/A   Clear
6:53 PM 82.0 °F 84.9 °F 68.0 °F 62% 30.08 in 10.0 mi SSE 8.1 mph - N/A   Clear
7:53 PM 78.1 °F - 66.9 °F 68% 30.09 in 10.0 mi South 5.8 mph - N/A   Clear
8:53 PM 75.0 °F - 66.9 °F 76% 30.11 in 10.0 mi South 6.9 mph - N/A   Clear
9:53 PM 73.0 °F - 69.1 °F 87% 30.13 in 10.0 mi South 3.5 mph - N/A   Clear
10:53 PM 71.1 °F - 66.9 °F 87% 30.14 in 10.0 mi Calm Calm - N/A   Clear
11:53 PM 71.1 °F - 68.0 °F 90% 30.14 in 10.0 mi Calm Calm - N/A   Clear